GW4132 Weather Reports


Display with metric or nautical units.
time (UTC)temp
F
wind
direction
speed
MPH
gust
MPH
rain 1hr
in
rain 24hr
in
rain mn
in
humidity
%
barometer
mb
20260505024607 59 360 1.0 2.0 0.00 0.00 0.00 62 1016.2
20260505023043 59 360 0.0 3.0 0.00 0.00 0.00 61 1016.2
20260505021536 60 32 0.0 2.0 0.00 0.00 0.00 60 1016.2
20260505020054 61 17 1.0 7.0 0.00 0.00 0.00 58 1016.1
20260505014544 61 136 0.0 2.0 0.00 0.00 0.00 56 1015.9
20260505013041 62 142 1.0 6.0 0.00 0.00 0.00 55 1015.9
20260505011548 62 75 0.0 5.0 0.00 0.00 0.00 54 1016.2
20260505010106 63 53 0.0 5.0 0.00 0.00 0.00 52 1016.1
20260505004601 64 14 2.0 6.0 0.00 0.00 0.00 50 1016.2
20260505003045 65 43 0.0 6.0 0.00 0.00 0.00 49 1016.2
20260505001549 67 70 2.0 7.0 0.00 0.00 0.00 46 1016.3
20260505000047 68 17 2.0 7.0 0.00 0.00 0.00 45 1016.2
20260504234545 69 24 2.0 5.0 0.00 0.00 0.00 44 1016.2
20260504233050 69 59 3.0 6.0 0.00 0.00 0.00 43 1016.2
20260504231618 69 71 2.0 6.0 0.00 0.00 0.00 44 1016.5
20260504230049 70 27 3.0 6.0 0.00 0.00 0.00 43 1016.5
20260504224553 70 46 2.0 5.0 0.00 0.00 0.00 42 1016.5
20260504223048 70 126 2.0 4.0 0.00 0.00 0.00 41 1016.7
20260504221631 70 65 1.0 7.0 0.00 0.00 0.00 43 1016.8
20260504220029 70 360 2.0 8.0 0.00 0.00 0.00 44 1017.0
20260504214547 71 173 2.0 7.0 0.00 0.00 0.00 44 1016.9
20260504213045 70 124 3.0 7.0 0.00 0.00 0.00 44 1017.1
20260504211548 70 59 2.0 9.0 0.00 0.00 0.00 46 1017.0
20260504210050 70 57 2.0 6.0 0.00 0.00 0.00 46 1017.0
20260504204539 71 31 3.0 13.0 0.00 0.00 0.00 44 1017.0
20260504203050 71 245 2.0 7.0 0.00 0.00 0.00 44 1017.1
20260504201949 71 86 2.0 6.0 0.00 0.00 0.00 44 1017.0
20260504200049 70 56 2.0 6.0 0.00 0.00 0.00 45 1016.9
20260504194552 71 75 3.0 5.0 0.00 0.00 0.00 43 1017.0
20260504193049 71 121 2.0 5.0 0.00 0.00 0.00 45 1017.0
20260504191615 71 22 1.0 6.0 0.00 0.00 0.00 42 1017.2
20260504190110 71 56 1.0 6.0 0.00 0.00 0.00 46 1017.1
20260504184610 70 64 2.0 5.0 0.00 0.00 0.00 44 1017.1
20260504183056 70 153 2.0 5.0 0.00 0.00 0.00 44 1017.0
20260504181612 69 79 1.0 8.0 0.00 0.00 0.00 44 1017.0
20260504180615 68 107 2.0 6.0 0.00 0.00 0.00 45 1017.0
20260504174552 69 68 2.0 6.0 0.00 0.00 0.00 43 1016.9
20260504173104 68 127 2.0 4.0 0.00 0.00 0.00 43 1016.7
20260504171558 67 165 1.0 5.0 0.00 0.00 0.00 45 1016.7
20260504160111 58 13 0.0 1.0 0.00 0.00 0.00 64 1016.5
20260504081555 48 5 0.0 2.0 0.00 0.00 0.00 78 1017.1
20260504060108 50 5 0.0 2.0 0.00 0.00 0.00 74 1017.2
20260504050115 51 5 0.0 1.0 0.00 0.00 0.00 70 1017.3
20260504044542 52 5 0.0 1.0 0.00 0.00 0.00 70 1017.6
20260504043050 53 5 0.0 2.0 0.00 0.00 0.00 68 1017.4
20260504041549 53 5 0.0 2.0 0.00 0.00 0.00 66 1017.4
20260504040116 54 5 0.0 2.0 0.00 0.00 0.00 63 1017.6
20260504034604 55 5 0.0 2.0 0.00 0.00 0.00 63 1017.2
20260504033058 56 9 1.0 2.0 0.00 0.00 0.00 59 1017.1
20260504031624 57 352 1.0 2.0 0.00 0.00 0.00 58 1017.0
20260504030116 58 333 1.0 3.0 0.00 0.00 0.00 54 1017.2